Location: Kitt Peak
(31.9639°N, 111.5992°W)
Time: 15:08:16
(UTC-07:00)

SRMSAT - Pass Details

Date: 16 December 2025
Orbit: 846 x 863 km, 20.0° (Epoch: 13 January)

Event Time Altitude Azimuth Distance (km) Brightness Sun altitude
Exits shadow 06:20:22 - 242° (WSW) 3,009 ? -12.5°
Reaches altitude 10° 06:22:09 10° 234° (SW) 2,462 ? -12.1°
Maximum altitude 06:26:54 25° 180° (S) 1,640 ? -11.2°
Drops below altitude 10° 06:31:40 10° 127° (SE) 2,472 ? -10.2°
Sets 06:34:39 0° 114° (ESE) 3,411 ? -9.6°
